TimeMDT,TemperatureF,Dew PointF,Humidity,Sea Level PressureIn,VisibilityMPH,Wind Direction,Wind SpeedMPH,Gust SpeedMPH,PrecipitationIn,Events,Conditions,WindDirDegrees,DateUTC
12:55 AM,59.9,30.2,33,29.73,10.0,ENE,3.5,-,N/A,,Clear,70,2012-10-03 06:55:00
1:55 AM,58.6,29.8,34,29.73,10.0,ESE,6.9,-,N/A,,Clear,110,2012-10-03 07:55:00
2:55 AM,57.4,29.8,35,29.75,10.0,ESE,9.2,-,N/A,,Clear,110,2012-10-03 08:55:00
3:55 AM,56.7,30.2,37,29.74,10.0,ESE,6.9,-,N/A,,Clear,120,2012-10-03 09:55:00
4:55 AM,55.2,30.9,40,29.76,10.0,ESE,9.2,-,N/A,,Clear,120,2012-10-03 10:55:00
5:55 AM,54.1,31.6,42,29.77,10.0,SE,6.9,-,N/A,,Mostly Cloudy,130,2012-10-03 11:55:00
6:55 AM,51.4,32.0,47,29.83,10.0,ESE,6.9,-,N/A,,Mostly Cloudy,110,2012-10-03 12:55:00
7:55 AM,51.8,33.1,49,29.85,10.0,SE,4.6,-,N/A,,Clear,140,2012-10-03 13:55:00
8:55 AM,57.4,36.0,45,29.86,10.0,Calm,Calm,-,N/A,,Clear,0,2012-10-03 14:55:00
9:55 AM,63.5,32.7,32,29.86,10.0,WNW,6.9,-,N/A,,Clear,290,2012-10-03 15:55:00
10:55 AM,63.5,31.1,30,29.90,10.0,NW,8.1,-,N/A,,Clear,320,2012-10-03 16:55:00
11:55 AM,65.3,27.5,24,29.87,10.0,Variable,4.6,-,N/A,,Clear,0,2012-10-03 17:55:00
12:55 PM,67.6,22.1,18,29.89,10.0,West,8.1,-,N/A,,Clear,270,2012-10-03 18:55:00
1:55 PM,68.0,22.3,18,29.91,10.0,SW,9.2,17.3,N/A,,Clear,220,2012-10-03 19:55:00
2:55 PM,68.0,20.5,16,29.91,10.0,Variable,5.8,-,N/A,,Clear,0,2012-10-03 20:55:00
3:55 PM,68.4,20.5,16,29.91,10.0,West,5.8,-,N/A,,Clear,280,2012-10-03 21:55:00
4:46 PM,66.2,15.8,14,29.93,10.0,NNW,16.1,-,N/A,,Clear,330,2012-10-03 22:46:00
4:55 PM,66.4,15.4,14,29.94,10.0,NNW,13.8,-,N/A,,Clear,340,2012-10-03 22:55:00
5:55 PM,63.9,15.1,15,29.97,10.0,NNW,13.8,-,N/A,,Clear,340,2012-10-03 23:55:00
6:55 PM,59.4,19.0,21,30.01,10.0,North,6.9,-,N/A,,Clear,350,2012-10-04 00:55:00
7:55 PM,56.7,19.4,23,30.02,10.0,North,6.9,-,N/A,,Clear,360,2012-10-04 01:55:00
8:55 PM,55.8,22.5,28,29.99,10.0,Variable,5.8,-,N/A,,Clear,0,2012-10-04 02:55:00
9:55 PM,54.5,16.5,22,29.98,10.0,ENE,8.1,-,N/A,,Clear,60,2012-10-04 03:55:00
10:55 PM,52.7,17.1,25,30.01,10.0,ENE,8.1,16.1,N/A,,Clear,60,2012-10-04 04:55:00
11:55 PM,52.5,14.9,23,29.98,10.0,NE,8.1,19.6,N/A,,Clear,40,2012-10-04 05:55:00